Weather History for Mosby, MO

Change the Weather History Date:

Wednesday, January 9, 2013

  Actual Average (KMKC) Record (KMKC)
Temperature  
Mean Temperature 42 °F -  
Max Temperature 57 °F 36 °F 63 °F (2009)
Min Temperature 26 °F 21 °F 1 °F (1999)
Degree Days  
Heating Degree Days 24    
Moisture  
Dew Point 30 °F    
Average Humidity 78    
Maximum Humidity 100    
Minimum Humidity 33    
Precipitation  
Precipitation 0.00 in - - ()
Sea Level Pressure  
Sea Level Pressure 30.35 in    
Wind  
Wind Speed 2 mph (NE)    
Max Wind Speed 9 mph    
Max Gust Speed -    
Visibility 10 miles    
Events      
Averages and records for this station are not official NWS values.
T = Trace of Precipitation, MM = Missing Value Source: NWS Daily Summary

Daily Weather History Graph

Daily Weather History Graph

Search for Another Location

Airport:

Trip Planner

Search our weather history database for the weather conditions in past years. The results will help you decide how hot, cold, wet, or windy it might be!

Date:

Astronomy

Jan. 09, 2013 Rise Set
Actual Time 7:36 AM CST 5:12 PM CST
Civil Twilight 7:07 AM CST 5:42 PM CST
Nautical Twilight 6:33 AM CST 6:15 PM CST
Astronomical Twilight 6:01 AM CST 6:47 PM CST
Moon 5:17 AM CST (1/9) 3:14 PM CST (1/9)
Length of Visible Light 10h 34m
Length of Day
9h 35m
Waning Crescent, 6% of the Moon is Illuminated
Jan 9
Waning Crescent
Jan 11
New
Jan 18
First Quarter
Jan 26
Full
Feb 3
Last Quarter

Hourly Weather History & Observations

Time (CST) Temp. Windchill Dew Point Humidity Pressure Visibility Wind Dir Wind Speed Gust Speed Precip Events Conditions
12:15 AM 35.6 °F 31.7 °F 32.0 °F 87% 30.19 in 10.0 mi West 4.6 mph - N/A   Clear
12:35 AM 35.6 °F - 32.0 °F 87% 30.20 in 10.0 mi Calm Calm - N/A   Clear
12:55 AM 32.0 °F - 30.2 °F 93% 30.21 in 10.0 mi Calm Calm - N/A   Clear
1:15 AM 33.8 °F - 32.0 °F 93% 30.22 in 10.0 mi Calm Calm - N/A   Clear
1:35 AM 32.0 °F - 30.2 °F 93% 30.22 in 10.0 mi Calm Calm - N/A   Clear
1:55 AM 32.0 °F - 28.4 °F 87% 30.22 in 10.0 mi Calm Calm - N/A   Clear
2:15 AM 28.4 °F - 28.4 °F 100% 30.23 in 10.0 mi Calm Calm - N/A   Clear
2:35 AM 30.2 °F - 28.4 °F 93% 30.25 in 10.0 mi Calm Calm - N/A   Clear
2:55 AM 30.2 °F - 28.4 °F 93% 30.26 in 10.0 mi Calm Calm - N/A   Clear
3:15 AM 30.2 °F - 28.4 °F 93% 30.27 in 10.0 mi Calm Calm - N/A   Clear
3:35 AM 28.4 °F - 28.4 °F 100% 30.27 in 7.0 mi Calm Calm - N/A   Clear
3:55 AM 30.2 °F - 28.4 °F 93% 30.28 in 10.0 mi Calm Calm - N/A   Clear
4:15 AM 28.4 °F - 26.6 °F 93% 30.28 in 10.0 mi Calm Calm - N/A   Clear
4:35 AM 26.6 °F - 26.6 °F 100% 30.28 in 10.0 mi Calm Calm - N/A   Clear
4:55 AM 28.4 °F - 26.6 °F 93% 30.28 in 10.0 mi Calm Calm - N/A   Clear
5:15 AM 28.4 °F - 26.6 °F 93% 30.30 in 10.0 mi Calm Calm - N/A   Clear
5:35 AM 28.4 °F - 26.6 °F 93% 30.30 in 10.0 mi Calm Calm - N/A   Clear
5:55 AM 26.6 °F - 26.6 °F 100% 30.30 in 7.0 mi Calm Calm - N/A   Clear
6:15 AM 26.6 °F - 26.6 °F 100% 30.30 in 10.0 mi Calm Calm - N/A   Clear
6:35 AM 26.6 °F - 26.6 °F 100% 30.31 in 10.0 mi Calm Calm - N/A   Clear
6:55 AM 26.6 °F - 26.6 °F 100% 30.32 in 10.0 mi Calm Calm - N/A   Clear
7:15 AM 26.6 °F - 26.6 °F 100% 30.33 in 10.0 mi Calm Calm - N/A   Clear
7:35 AM 26.6 °F - 24.8 °F 93% 30.35 in 10.0 mi Calm Calm - N/A   Clear
7:55 AM 26.6 °F - 24.8 °F 93% 30.36 in 10.0 mi Calm Calm - N/A   Clear
8:35 AM 28.4 °F - 26.6 °F 93% 30.39 in 10.0 mi Calm Calm - N/A   Clear
8:55 AM 28.4 °F - 26.6 °F 93% 30.40 in 10.0 mi Calm Calm - N/A   Clear
9:15 AM 30.2 °F - 28.4 °F 93% 30.42 in 10.0 mi Calm Calm - N/A   Clear
9:35 AM 32.0 °F - 28.4 °F 87% 30.42 in 10.0 mi Calm Calm - N/A   Clear
9:55 AM 32.0 °F - 30.2 °F 93% 30.43 in 10.0 mi Calm Calm - N/A   Clear
10:15 AM 35.6 °F - 32.0 °F 87% 30.43 in 10.0 mi Calm Calm - N/A   Clear
10:35 AM 37.4 °F 34.9 °F 32.0 °F 81% 30.43 in 10.0 mi NW 3.5 mph - N/A   Clear
10:55 AM 37.4 °F - 32.0 °F 81% 30.42 in 10.0 mi Calm Calm - N/A   Clear
11:15 AM 41.0 °F - 32.0 °F 70% 30.42 in 10.0 mi Calm Calm - N/A   Clear
12:15 PM 50.0 °F - 35.6 °F 58% 30.39 in 10.0 mi NNW 5.8 mph - N/A   Clear
12:35 PM 51.8 °F - 35.6 °F 54% 30.37 in 10.0 mi NNW 4.6 mph - N/A   Clear
12:55 PM 53.6 °F - 32.0 °F 44% 30.37 in 10.0 mi North 6.9 mph - N/A   Clear
1:15 PM 55.4 °F - 26.6 °F 33% 30.36 in 10.0 mi North 9.2 mph - N/A   Clear
1:35 PM 55.4 °F - 28.4 °F 36% 30.35 in 10.0 mi NNE 8.1 mph - N/A   Clear
2:15 PM 57.2 °F - 28.4 °F 33% 30.35 in 10.0 mi NNE 6.9 mph - N/A   Clear
2:35 PM 55.4 °F - 26.6 °F 33% 30.35 in 10.0 mi NNE 6.9 mph - N/A   Clear
2:55 PM 55.4 °F - 30.2 °F 38% 30.36 in 10.0 mi NE 5.8 mph - N/A   Clear
3:15 PM 55.4 °F - 28.4 °F 36% 30.36 in 10.0 mi NNE 4.6 mph - N/A   Clear
3:35 PM 55.4 °F - 28.4 °F 36% 30.37 in 10.0 mi NE 5.8 mph - N/A   Clear
3:55 PM 55.4 °F - 30.2 °F 38% 30.38 in 10.0 mi NE 3.5 mph - N/A   Clear
4:15 PM 55.4 °F - 28.4 °F 36% 30.39 in 10.0 mi SE 3.5 mph - N/A   Clear
4:35 PM 53.6 °F - 32.0 °F 44% 30.39 in 10.0 mi SE 5.8 mph - N/A   Clear
4:55 PM 51.8 °F - 33.8 °F 50% 30.39 in 10.0 mi SE 4.6 mph - N/A   Clear
5:15 PM 50.0 °F - 33.8 °F 54% 30.39 in 10.0 mi SE 3.5 mph - N/A   Clear
5:35 PM 50.0 °F - 33.8 °F 54% 30.39 in 10.0 mi ESE 3.5 mph - N/A   Clear
5:55 PM 48.2 °F - 32.0 °F 54% 30.39 in 10.0 mi ESE 4.6 mph - N/A   Clear
6:15 PM 46.4 °F 45.2 °F 32.0 °F 57% 30.40 in 10.0 mi ESE 3.5 mph - N/A   Clear
6:35 PM 46.4 °F 45.2 °F 32.0 °F 57% 30.40 in 10.0 mi SE 3.5 mph - N/A   Clear
7:15 PM 41.0 °F - 32.0 °F 70% 30.40 in 10.0 mi Calm Calm - N/A   Clear
7:35 PM 37.4 °F - 32.0 °F 81% 30.40 in 10.0 mi Calm Calm - N/A   Clear
7:55 PM 37.4 °F - 32.0 °F 81% 30.40 in 10.0 mi Calm Calm - N/A   Clear
8:35 PM 33.8 °F - 30.2 °F 87% 30.40 in 10.0 mi Calm Calm - N/A   Clear
8:55 PM 33.8 °F - 30.2 °F 87% 30.40 in 10.0 mi Calm Calm - N/A   Clear
9:15 PM 33.8 °F - 30.2 °F 87% 30.40 in 10.0 mi Calm Calm - N/A   Clear
9:35 PM 32.0 °F - 30.2 °F 93% 30.40 in 10.0 mi Calm Calm - N/A   Clear
9:55 PM 32.0 °F - 30.2 °F 93% 30.41 in 10.0 mi Calm Calm - N/A   Clear
10:15 PM 32.0 °F - 30.2 °F 93% 30.40 in 10.0 mi Calm Calm - N/A   Clear
10:35 PM 32.0 °F - 30.2 °F 93% 30.39 in 10.0 mi Calm Calm - N/A   Clear
10:55 PM 32.0 °F - 28.4 °F 87% 30.39 in 10.0 mi Calm Calm - N/A   Clear
11:15 PM 32.0 °F - 28.4 °F 87% 30.38 in 10.0 mi Calm Calm - N/A   Clear
11:35 PM 32.0 °F - 30.2 °F 93% 30.38 in 10.0 mi Calm Calm - N/A   Clear
11:55 PM 30.2 °F - 28.4 °F 93% 30.37 in 10.0 mi Calm Calm - N/A   Clear